Regional Weather Roundup
Issued by NWS

Home | Current Version | Previous Version | Graphics & Text | Print | Product List | Glossary On
Versions: 1 2 3 4 5 6 7 8 9 10 11 12 13 14 15 16 17 18 19 20 21 22 23 24 25 26 27 28 29 30 31 32 33 34 35 36 37 38 39 40 41 42 43 44 45 46 47 48 49 50
000
ASUS45 KBOI 260110
RWRID
WEATHER ROUNDUP FOR IDAHO
NATIONAL WEATHER SERVICE BOISE ID
600 PM MST TUE NOV 25 2014

NOTE: "FAIR" INDICATES FEW OR NO CLOUDS BELOW 12000 FEET
WITH NO SIGNIFICANT WEATHER AND/OR OBSTRUCTIONS TO VISIBILITY

IDZ012-014-260200-
SOUTHWEST IDAHO


CITY           SKY/WX    TMP DP  RH WIND       PRES   REMARKS
BOISE          CLOUDY    52  42  69 NW5       30.25S
CALDWELL       NOT AVBL
MOUNTAIN HOME  PTCLDY    53  43  71 W14       30.25R
$$

IDZ016-017-260200-
SOUTHCENTRAL IDAHO


CITY           SKY/WX    TMP DP  RH WIND       PRES   REMARKS
BURLEY         CLOUDY    51  37  58 W16G25    30.21R
JEROME         CLOUDY    50  39  66 W23G29    30.22R
TWIN FALLS     CLOUDY    53  37  54 SW22G28   30.24R
$$

IDZ019>023-260200-
SOUTHEAST IDAHO


CITY           SKY/WX    TMP DP  RH WIND       PRES   REMARKS
IDAHO FALLS    MOCLDY    43  38  82 S13       30.08S
POCATELLO      MOCLDY    47  41  80 SW31G40   30.14R
REXBURG        CLOUDY    37  34  89 NE3       30.07S
$$

IDZ006-010-011-018-031-032-260200-
CENTRAL IDAHO MOUNTAINS


CITY           SKY/WX    TMP DP  RH WIND       PRES   REMARKS
MCCALL         CLOUDY    34  33  96 CALM      30.20S FOG
HAILEY         PTCLDY    48  34  57 NW5       30.12R
STANLEY          N/A     41  32  70 VRB3      30.20S
SALMON         CLOUDY    34  32  93 N3        30.11R
CHALLIS        CLOUDY    36  34  92 S6        30.09S WCI  31
$$

IDZ002-004-006-007-026-260200-
NORTHERN IDAHO


CITY           SKY/WX    TMP DP  RH WIND       PRES   REMARKS
LEWISTON       LGT RAIN  44  42  93 E7        30.16F
LOWELL           N/A     36  35  96 CALM      30.21F
COEUR D`ALENE  CLOUDY    36  32  87 CALM      30.19S
MULLAN PASS    LGT SNOW  26  23  88 VRB3      30.08F FOG
$$



USA.gov is the U.S. government's official web portal to all federal, state and local government web resources and services.